Location: Castelbiague
(43.0361°N, 0.9246°E)
Time: 01:31:17
(UTC+00:00)

FENGYUN 1C DEB - Visible Passes

Search period start: 15 August 2022 00:00
Search period end: 25 August 2022 00:00
Orbit: 725 x 847 km, 98.9° (Epoch: 14 August)

Date Brightness Start Highest point End Pass type
(mag) Time Alt. Az. Time Alt. Az. Time Alt. Az.
15 Aug ? 02:34:22 10° SE 02:39:01 34° ENE 02:43:50 10° N visible
15 Aug ? 04:13:43 10° SSW 04:18:20 32° W 04:23:07 10° NNW visible
16 Aug ? 02:04:55 10° ESE 02:08:36 20° ENE 02:12:22 10° NNE visible
16 Aug ? 03:42:17 10° S 03:47:25 62° WSW 03:52:45 10° NNW visible
17 Aug ? 01:36:52 10° ENE 01:38:20 11° NE 01:39:48 10° NE visible
17 Aug ? 03:11:28 10° SSE 03:16:40 72° ENE 03:22:03 10° N visible
18 Aug ? 02:41:13 10° SE 02:46:04 39° ENE 02:51:03 10° N visible
18 Aug ? 04:20:59 10° SSW 04:25:28 29° W 04:30:06 10° NW visible
19 Aug ? 02:11:36 10° ESE 02:15:37 22° ENE 02:19:42 10° NNE visible
19 Aug ? 03:49:24 10° S 03:54:31 54° W 03:59:50 10° NNW visible
20 Aug ? 01:43:01 10° E 01:45:18 13° NE 01:47:36 10° NNE visible
20 Aug ? 03:18:28 10° SSE 03:23:44 82° ENE 03:29:11 10° NNW visible
21 Aug ? 02:48:05 10° SE 02:53:06 45° ENE 02:58:15 10° N visible
21 Aug ? 04:28:17 10° SSW 04:32:37 25° W 04:37:03 10° NW visible
22 Aug ? 02:18:19 10° ESE 02:22:37 25° ENE 02:26:59 10° N visible
22 Aug ? 03:56:33 10° S 04:01:37 47° W 04:06:53 10° NNW visible
23 Aug ? 01:49:25 10° E 01:52:16 15° ENE 01:55:09 10° NNE visible
23 Aug ? 03:25:29 10° SSE 03:30:48 88° WSW 03:36:18 10° NNW visible
24 Aug ? 02:55:00 10° SE 03:00:07 51° ENE 03:05:25 10° N visible
24 Aug ? 04:35:38 10° SW 04:39:45 22° W 04:43:57 10° NW visible
